Weather History for Plymouth, MA

Change the Weather History Date:

Monday, January 21, 2013

  Actual Average Record
Temperature  
Mean Temperature 26 °F -  
Max Temperature 28 °F 35 °F 57 °F (1951)
Min Temperature 23 °F 15 °F -5 °F (1984)
Degree Days  
Heating Degree Days 40    
Moisture  
Dew Point 13 °F    
Average Humidity 61    
Maximum Humidity 88    
Minimum Humidity 36    
Precipitation  
Precipitation 0.06 in - - ()
Sea Level Pressure  
Sea Level Pressure 29.96 in    
Wind  
Wind Speed 7 mph (NW)    
Max Wind Speed 13 mph    
Max Gust Speed 26 mph    
Visibility 7 miles    
Events Snow    
Averages and records for this station are not official NWS values.
T = Trace of Precipitation, MM = Missing Value Source: NWS Daily Summary

Daily Weather History Graph

Daily Weather History Graph

Search for Another Location

Airport:

Trip Planner

Search our weather history database for the weather conditions in past years. The results will help you decide how hot, cold, wet, or windy it might be!

Date:

Astronomy

Jan. 21, 2013 Rise Set
Actual Time 7:04 AM EST 4:44 PM EST
Civil Twilight 6:34 AM EST 5:14 PM EST
Nautical Twilight 6:00 AM EST 5:48 PM EST
Astronomical Twilight 5:27 AM EST 6:21 PM EST
Moon 12:21 PM EST (1/21) 2:30 AM EST (1/21)
Length of Visible Light 10h 40m
Length of Day
9h 39m
Waxing Gibbous, 75% of the Moon is Illuminated
Jan 21
Waxing Gibbous
Jan 26
Full
Feb 3
Last Quarter
Feb 10
New
Feb 17
First Quarter

Hourly Weather History & Observations

Time (EST) Temp. Windchill Dew Point Humidity Pressure Visibility Wind Dir Wind Speed Gust Speed Precip Events Conditions
12:52 AM 28.9 °F 20.4 °F 8.1 °F 41% 29.94 in 10.0 mi West 9.2 mph - N/A   Clear
1:52 AM 28.0 °F 19.3 °F 8.1 °F 43% 29.97 in 10.0 mi West 9.2 mph - N/A   Clear
2:52 AM 28.0 °F 17.5 °F 8.1 °F 43% 30.00 in 10.0 mi NW 12.7 mph 26.5 mph N/A   Clear
3:52 AM 26.1 °F 17.6 °F 7.0 °F 44% 30.02 in 10.0 mi WNW 8.1 mph 20.7 mph N/A   Clear
4:52 AM 25.0 °F 15.5 °F 6.1 °F 45% 30.04 in 10.0 mi WNW 9.2 mph - N/A   Clear
5:52 AM 24.1 °F 14.4 °F 3.9 °F 42% 30.06 in 10.0 mi West 9.2 mph 18.4 mph N/A   Clear
6:52 AM 23.0 °F 14.7 °F 5.0 °F 46% 30.07 in 10.0 mi West 6.9 mph - N/A   Clear
7:52 AM 23.0 °F 14.7 °F 6.1 °F 48% 30.10 in 10.0 mi WSW 6.9 mph - N/A   Clear
8:52 AM 26.1 °F 18.4 °F 5.0 °F 41% 30.11 in 10.0 mi West 6.9 mph - N/A   Overcast
9:52 AM 28.0 °F 20.0 °F 3.9 °F 36% 30.11 in 10.0 mi WNW 8.1 mph 17.3 mph N/A   Clear
10:52 AM 27.0 °F 18.7 °F 3.9 °F 37% 30.09 in 10.0 mi West 8.1 mph - N/A   Overcast
11:52 AM 28.0 °F 20.0 °F 5.0 °F 38% 30.05 in 10.0 mi West 8.1 mph - N/A   Clear
12:52 PM 28.9 °F 20.4 °F 5.0 °F 36% 30.01 in 10.0 mi West 9.2 mph - N/A   Clear
1:52 PM 28.9 °F 22.8 °F 6.1 °F 38% 29.99 in 10.0 mi WSW 5.8 mph - N/A   Scattered Clouds
2:52 PM 28.9 °F 21.1 °F 6.1 °F 38% 29.98 in 10.0 mi WSW 8.1 mph - N/A   Overcast
3:52 PM 28.9 °F 21.9 °F 8.1 °F 41% 29.96 in 10.0 mi SW 6.9 mph - N/A   Overcast
4:52 PM 28.0 °F 22.8 °F 12.0 °F 51% 29.95 in 10.0 mi Variable 4.6 mph - N/A   Overcast
5:52 PM 26.1 °F - 17.1 °F 69% 29.93 in 4.0 mi Calm Calm - 0.00 in Snow Light Snow
6:13 PM 24.8 °F - 19.4 °F 80% 29.93 in 1.8 mi Calm Calm - 0.00 in Snow Light Snow
6:37 PM 24.8 °F - 19.4 °F 80% 29.93 in 0.8 mi Calm Calm - 0.00 in Snow Light Snow
6:52 PM 25.0 °F - 21.0 °F 85% 29.94 in 0.8 mi Calm Calm - 0.02 in Snow Light Snow
7:01 PM 24.8 °F - 19.4 °F 80% 29.92 in 1.2 mi Calm Calm - 0.00 in Snow Light Snow
7:20 PM 24.8 °F - 21.2 °F 86% 29.92 in 1.2 mi Calm Calm - 0.01 in Snow Light Snow
7:52 PM 25.0 °F - 21.0 °F 85% 29.91 in 1.5 mi Calm Calm - 0.01 in Snow Light Snow
8:35 PM 24.8 °F 19.1 °F 21.2 °F 86% 29.89 in 0.8 mi NNE 4.6 mph - 0.02 in Snow Light Snow
8:52 PM 25.0 °F 20.7 °F 21.0 °F 85% 29.89 in 1.5 mi NNE 3.5 mph - 0.02 in Snow Light Snow
9:22 PM 24.8 °F 20.5 °F 21.2 °F 86% 29.88 in 2.0 mi NNE 3.5 mph - 0.01 in Snow Light Snow
9:30 PM 24.8 °F 19.1 °F 21.2 °F 86% 29.87 in 3.0 mi NE 4.6 mph - 0.01 in Snow Light Snow
9:44 PM 24.8 °F 17.9 °F 21.2 °F 86% 29.87 in 6.0 mi NNE 5.8 mph - 0.01 in   Overcast
9:52 PM 25.0 °F 16.3 °F 21.0 °F 85% 29.86 in 9.0 mi NNE 8.1 mph - 0.01 in   Overcast
10:52 PM 24.1 °F 16.0 °F 21.0 °F 88% 29.82 in 10.0 mi North 6.9 mph - N/A   Overcast
11:52 PM 25.0 °F 18.1 °F 21.0 °F 85% 29.78 in 2.5 mi North 5.8 mph - 0.00 in Snow Light Snow